Time,TemperatureF,DewpointF,PressureIn,WindDirection,WindDirectionDegrees,WindSpeedMPH,WindSpeedGustMPH,Humidity,HourlyPrecipIn,Conditions,Clouds,dailyrainin,SoftwareType,DateUTC
2013-03-05 00:02:00,25.5,17.1,21.94,East,90,2.0,4.0,70,0.00,,,0.00,meteohub,2013-03-05 06:02:00,
2013-03-05 00:07:00,25.5,17.1,21.94,East,90,2.0,3.0,70,0.00,,,0.00,meteohub,2013-03-05 06:07:00,
2013-03-05 00:12:00,25.3,16.9,21.94,SE,135,2.0,8.0,70,0.00,,,0.00,meteohub,2013-03-05 06:12:00,
2013-03-05 00:17:00,25.5,17.1,21.94,SE,135,4.0,8.0,70,0.00,,,0.00,meteohub,2013-03-05 06:17:00,
2013-03-05 00:22:00,25.3,17.2,21.94,SE,135,4.0,8.0,71,0.00,,,0.00,meteohub,2013-03-05 06:22:00,
2013-03-05 00:27:00,25.3,17.2,21.95,SE,135,4.0,5.0,71,0.00,,,0.00,meteohub,2013-03-05 06:27:00,
2013-03-05 00:32:00,25.3,17.2,21.95,South,180,3.0,5.0,71,0.00,,,0.00,meteohub,2013-03-05 06:32:00,
2013-03-05 00:37:00,25.3,17.6,21.95,SE,135,4.0,5.0,72,0.00,,,0.00,meteohub,2013-03-05 06:37:00,
2013-03-05 00:42:00,25.3,17.6,21.96,South,180,5.0,5.0,72,0.00,,,0.00,meteohub,2013-03-05 06:42:00,
2013-03-05 00:47:00,25.3,17.6,21.96,SE,135,8.0,8.0,72,0.00,,,0.00,meteohub,2013-03-05 06:47:00,
2013-03-05 00:52:00,25.3,17.6,21.96,SE,135,3.0,8.0,72,0.00,,,0.00,meteohub,2013-03-05 06:52:00,
2013-03-05 00:57:00,25.3,17.6,21.95,South,180,3.0,8.0,72,0.00,,,0.00,meteohub,2013-03-05 06:57:00,
2013-03-05 01:02:00,25.3,17.6,21.95,SE,135,3.0,8.0,72,0.00,,,0.00,meteohub,2013-03-05 07:02:00,
2013-03-05 01:07:00,25.3,17.6,21.95,SE,135,4.0,4.0,72,0.00,,,0.00,meteohub,2013-03-05 07:07:00,
2013-03-05 01:12:00,25.2,17.4,21.95,SE,135,4.0,6.0,72,0.00,,,0.00,meteohub,2013-03-05 07:12:00,
2013-03-05 01:17:00,25.2,17.4,21.95,ESE,113,3.0,6.0,72,0.00,,,0.00,meteohub,2013-03-05 07:17:00,
2013-03-05 01:22:00,25.2,17.4,21.95,SE,135,4.0,6.0,72,0.00,,,0.00,meteohub,2013-03-05 07:22:00,
2013-03-05 01:27:00,25.3,17.6,21.95,South,180,4.0,5.0,72,0.00,,,0.00,meteohub,2013-03-05 07:27:00,
2013-03-05 01:32:00,25.3,17.2,21.96,SE,135,5.0,6.0,71,0.00,,,0.00,meteohub,2013-03-05 07:32:00,
2013-03-05 01:37:00,25.3,17.2,21.96,SE,135,7.0,7.0,71,0.00,,,0.00,meteohub,2013-03-05 07:37:00,
2013-03-05 01:42:00,25.3,17.2,21.96,South,180,3.0,7.0,71,0.00,,,0.00,meteohub,2013-03-05 07:42:00,
2013-03-05 01:47:00,25.3,16.9,21.97,SE,135,6.0,8.0,70,0.00,,,0.00,meteohub,2013-03-05 07:47:00,
2013-03-05 01:52:00,25.5,17.1,21.97,SE,135,5.0,8.0,70,0.00,,,0.00,meteohub,2013-03-05 07:52:00,
2013-03-05 01:57:00,25.5,17.1,21.97,SE,135,3.0,6.0,70,0.00,,,0.00,meteohub,2013-03-05 07:57:00,
2013-03-05 02:02:00,25.5,16.7,21.98,SSW,203,4.0,7.0,69,0.00,,,0.00,meteohub,2013-03-05 08:02:00,
2013-03-05 02:07:00,25.5,16.7,21.98,SSW,203,4.0,7.0,69,0.00,,,0.00,meteohub,2013-03-05 08:07:00,
2013-03-05 02:12:00,25.7,16.5,21.98,South,180,5.0,7.0,68,0.00,,,0.00,meteohub,2013-03-05 08:12:00,
2013-03-05 02:17:00,25.7,16.0,21.98,South,180,7.0,7.0,66,0.00,,,0.00,meteohub,2013-03-05 08:17:00,
2013-03-05 02:22:00,25.7,16.0,21.98,SE,135,5.0,7.0,66,0.00,,,0.00,meteohub,2013-03-05 08:22:00,
2013-03-05 02:27:00,25.7,15.6,21.98,SW,225,2.0,8.0,65,0.00,,,0.00,meteohub,2013-03-05 08:27:00,
2013-03-05 02:32:00,25.7,15.6,21.99,SE,135,3.0,8.0,65,0.00,,,0.00,meteohub,2013-03-05 08:32:00,
2013-03-05 02:37:00,25.9,15.4,21.99,South,180,5.0,8.0,64,0.00,,,0.00,meteohub,2013-03-05 08:37:00,
2013-03-05 02:42:00,25.9,15.4,21.99,SE,135,5.0,5.0,64,0.00,,,0.00,meteohub,2013-03-05 08:42:00,
2013-03-05 02:47:00,25.9,15.1,21.99,South,180,4.0,7.0,63,0.00,,,0.00,meteohub,2013-03-05 08:47:00,
2013-03-05 02:52:00,26.1,14.9,22.00,SE,135,6.0,7.0,62,0.00,,,0.00,meteohub,2013-03-05 08:52:00,
2013-03-05 02:57:00,26.1,14.9,21.99,SE,135,4.0,7.0,62,0.00,,,0.00,meteohub,2013-03-05 08:57:00,
2013-03-05 03:02:00,26.1,14.5,21.99,SE,135,2.0,7.0,61,0.00,,,0.00,meteohub,2013-03-05 09:02:00,
2013-03-05 03:07:00,26.1,14.9,22.00,SE,135,4.0,7.0,62,0.00,,,0.00,meteohub,2013-03-05 09:07:00,
2013-03-05 03:12:00,26.1,14.5,22.00,SE,135,8.0,8.0,61,0.00,,,0.00,meteohub,2013-03-05 09:12:00,
2013-03-05 03:17:00,26.1,14.5,22.00,South,180,6.0,8.0,61,0.00,,,0.00,meteohub,2013-03-05 09:17:00,
2013-03-05 03:22:00,26.2,14.5,22.01,East,90,5.0,10.0,61,0.00,,,0.00,meteohub,2013-03-05 09:22:00,
2013-03-05 03:27:00,26.2,14.2,22.01,SE,135,4.0,10.0,60,0.00,,,0.00,meteohub,2013-03-05 09:27:00,
2013-03-05 03:32:00,26.1,14.0,22.01,South,180,7.0,10.0,60,0.00,,,0.00,meteohub,2013-03-05 09:32:00,
2013-03-05 03:37:00,26.1,14.0,22.01,SE,135,11.0,11.0,60,0.00,,,0.00,meteohub,2013-03-05 09:37:00,
2013-03-05 03:42:00,26.1,14.0,22.02,SE,135,4.0,11.0,60,0.00,,,0.00,meteohub,2013-03-05 09:42:00,
2013-03-05 03:47:00,26.1,14.0,22.01,South,180,7.0,11.0,60,0.00,,,0.00,meteohub,2013-03-05 09:47:00,
2013-03-05 03:52:00,26.1,14.0,22.02,SE,135,6.0,11.0,60,0.00,,,0.00,meteohub,2013-03-05 09:52:00,
2013-03-05 03:57:00,26.1,14.0,22.02,SE,135,11.0,11.0,60,0.00,,,0.00,meteohub,2013-03-05 09:57:00,
2013-03-05 04:02:00,26.1,14.0,22.02,East,90,8.0,11.0,60,0.00,,,0.00,meteohub,2013-03-05 10:02:00,
2013-03-05 04:07:00,26.1,14.0,22.02,East,90,8.0,11.0,60,0.00,,,0.00,meteohub,2013-03-05 10:07:00,
2013-03-05 04:12:00,26.1,13.6,22.02,East,90,10.0,11.0,59,0.00,,,0.00,meteohub,2013-03-05 10:12:00,
2013-03-05 04:17:00,26.1,13.6,22.02,SSE,158,8.0,10.0,59,0.00,,,0.00,meteohub,2013-03-05 10:17:00,
2013-03-05 04:22:00,26.1,13.6,22.03,SE,135,6.0,10.0,59,0.00,,,0.00,meteohub,2013-03-05 10:22:00,
2013-03-05 04:27:00,26.1,13.6,22.02,South,180,6.0,10.0,59,0.00,,,0.00,meteohub,2013-03-05 10:27:00,
2013-03-05 04:32:00,26.1,13.6,22.03,South,180,6.0,10.0,59,0.00,,,0.00,meteohub,2013-03-05 10:32:00,
2013-03-05 04:37:00,26.1,14.0,22.02,South,180,4.0,11.0,60,0.00,,,0.00,meteohub,2013-03-05 10:37:00,
2013-03-05 04:42:00,25.9,13.8,22.03,SE,135,4.0,11.0,60,0.00,,,0.00,meteohub,2013-03-05 10:42:00,
2013-03-05 04:47:00,25.9,13.8,22.03,SSE,158,6.0,9.0,60,0.00,,,0.00,meteohub,2013-03-05 10:47:00,
2013-03-05 04:52:00,25.9,13.8,22.03,SSE,158,3.0,9.0,60,0.00,,,0.00,meteohub,2013-03-05 10:52:00,
2013-03-05 04:57:00,25.9,14.4,22.03,South,180,4.0,9.0,61,0.00,,,0.00,meteohub,2013-03-05 10:57:00,
2013-03-05 05:02:00,25.9,14.4,22.03,SE,135,4.0,9.0,61,0.00,,,0.00,meteohub,2013-03-05 11:02:00,
2013-03-05 05:07:00,25.9,14.4,22.03,South,180,9.0,9.0,61,0.00,,,0.00,meteohub,2013-03-05 11:07:00,
2013-03-05 05:12:00,25.9,14.4,22.04,South,180,4.0,9.0,61,0.00,,,0.00,meteohub,2013-03-05 11:12:00,
2013-03-05 05:17:00,25.9,14.7,22.03,South,180,4.0,9.0,62,0.00,,,0.00,meteohub,2013-03-05 11:17:00,
2013-03-05 05:22:00,25.9,14.7,22.03,East,90,4.0,9.0,62,0.00,,,0.00,meteohub,2013-03-05 11:22:00,
2013-03-05 05:27:00,25.9,14.7,22.04,SE,135,4.0,10.0,62,0.00,,,0.00,meteohub,2013-03-05 11:27:00,
2013-03-05 05:32:00,25.9,14.7,22.03,East,90,8.0,10.0,62,0.00,,,0.00,meteohub,2013-03-05 11:32:00,
2013-03-05 05:37:00,25.9,14.7,22.04,SE,135,8.0,10.0,62,0.00,,,0.00,meteohub,2013-03-05 11:37:00,
2013-03-05 05:42:00,25.9,14.7,22.04,SE,135,8.0,8.0,62,0.00,,,0.00,meteohub,2013-03-05 11:42:00,
2013-03-05 05:46:00,25.9,14.7,22.04,SE,135,8.0,8.0,62,0.00,,,0.00,meteohub,2013-03-05 11:46:00,
2013-03-05 05:52:00,25.9,15.1,22.04,SE,135,5.0,8.0,63,0.00,,,0.00,meteohub,2013-03-05 11:52:00,
2013-03-05 05:57:00,25.9,15.1,22.04,SSE,158,8.0,8.0,63,0.00,,,0.00,meteohub,2013-03-05 11:57:00,
2013-03-05 06:02:00,25.9,15.1,22.04,SSE,158,8.0,11.0,63,0.00,,,0.00,meteohub,2013-03-05 12:02:00,
2013-03-05 06:07:00,25.9,15.1,22.04,SSE,158,8.0,11.0,63,0.00,,,0.00,meteohub,2013-03-05 12:07:00,
2013-03-05 06:12:00,25.9,15.1,22.04,South,180,2.0,11.0,63,0.00,,,0.00,meteohub,2013-03-05 12:12:00,
2013-03-05 06:17:00,25.9,15.1,22.03,SE,135,5.0,8.0,63,0.00,,,0.00,meteohub,2013-03-05 12:17:00,
2013-03-05 06:22:00,26.1,15.3,22.04,SE,135,4.0,8.0,63,0.00,,,0.00,meteohub,2013-03-05 12:22:00,
2013-03-05 06:27:00,26.1,15.3,22.04,SSW,203,3.0,6.0,63,0.00,,,0.00,meteohub,2013-03-05 12:27:00,
2013-03-05 06:32:00,26.1,15.3,22.04,South,180,4.0,6.0,63,0.00,,,0.00,meteohub,2013-03-05 12:32:00,
2013-03-05 06:37:00,26.1,16.0,22.04,SE,135,6.0,6.0,65,0.00,,,0.00,meteohub,2013-03-05 12:37:00,
2013-03-05 06:42:00,25.9,16.2,22.03,SE,135,2.0,9.0,66,0.00,,,0.00,meteohub,2013-03-05 12:42:00,
2013-03-05 06:47:00,25.9,16.7,22.03,SE,135,4.0,9.0,68,0.00,,,0.00,meteohub,2013-03-05 12:47:00,
2013-03-05 06:52:00,25.9,17.1,22.03,SE,135,7.0,9.0,69,0.00,,,0.00,meteohub,2013-03-05 12:52:00,
2013-03-05 06:57:00,25.9,17.1,22.02,SE,135,8.0,9.0,69,0.00,,,0.00,meteohub,2013-03-05 12:57:00,
2013-03-05 07:02:00,25.9,17.4,22.02,SE,135,4.0,9.0,70,0.00,,,0.00,meteohub,2013-03-05 13:02:00,
2013-03-05 07:06:00,25.9,17.4,22.02,SE,135,5.0,9.0,70,0.00,,,0.00,meteohub,2013-03-05 13:06:00,
2013-03-05 07:12:00,25.9,17.4,22.02,SE,135,6.0,9.0,70,0.00,,,0.00,meteohub,2013-03-05 13:12:00,
2013-03-05 07:17:00,26.1,17.6,22.02,SE,135,7.0,8.0,70,0.00,,,0.00,meteohub,2013-03-05 13:17:00,
2013-03-05 07:21:00,26.1,17.6,22.01,SE,135,4.0,8.0,70,0.00,,,0.00,meteohub,2013-03-05 13:21:00,
2013-03-05 07:27:00,26.2,17.4,22.01,SE,135,5.0,8.0,69,0.00,,,0.00,meteohub,2013-03-05 13:27:00,
2013-03-05 07:32:00,26.2,17.4,22.01,SE,135,4.0,8.0,69,0.00,,,0.00,meteohub,2013-03-05 13:32:00,
2013-03-05 07:37:00,26.2,17.4,22.01,South,180,4.0,5.0,69,0.00,,,0.00,meteohub,2013-03-05 13:37:00,
2013-03-05 07:42:00,26.4,17.2,22.01,SE,135,4.0,7.0,68,0.00,,,0.00,meteohub,2013-03-05 13:42:00,
2013-03-05 07:47:00,26.4,17.6,22.01,SE,135,8.0,8.0,69,0.00,,,0.00,meteohub,2013-03-05 13:47:00,
2013-03-05 07:52:00,26.2,17.8,22.01,SE,135,4.0,9.0,70,0.00,,,0.00,meteohub,2013-03-05 13:52:00,
2013-03-05 07:57:00,25.9,17.8,22.01,SE,135,8.0,9.0,71,0.00,,,0.00,meteohub,2013-03-05 13:57:00,
2013-03-05 08:02:00,25.9,18.1,22.01,SE,135,4.0,9.0,72,0.00,,,0.00,meteohub,2013-03-05 14:02:00,
2013-03-05 08:07:00,25.9,18.1,22.01,SE,135,4.0,8.0,72,0.00,,,0.00,meteohub,2013-03-05 14:07:00,
2013-03-05 08:12:00,25.7,18.5,22.01,SE,135,12.0,12.0,74,0.00,,,0.00,meteohub,2013-03-05 14:12:00,
2013-03-05 08:17:00,25.5,18.7,22.01,SE,135,5.0,12.0,75,0.00,,,0.00,meteohub,2013-03-05 14:17:00,
2013-03-05 08:22:00,25.3,19.2,22.01,ENE,68,14.0,14.0,77,0.00,,,0.00,meteohub,2013-03-05 14:22:00,
2013-03-05 08:27:00,25.3,19.4,22.01,SE,135,8.0,14.0,78,0.00,,,0.00,meteohub,2013-03-05 14:27:00,
2013-03-05 08:32:00,25.2,19.6,22.01,SE,135,10.0,14.0,79,0.00,,,0.00,meteohub,2013-03-05 14:32:00,
2013-03-05 08:37:00,25.2,19.6,22.01,SE,135,12.0,14.0,79,0.00,,,0.00,meteohub,2013-03-05 14:37:00,
2013-03-05 08:42:00,25.2,19.9,22.01,SE,135,11.0,13.0,80,0.00,,,0.00,meteohub,2013-03-05 14:42:00,
2013-03-05 08:47:00,25.2,19.9,22.01,East,90,12.0,13.0,80,0.00,,,0.00,meteohub,2013-03-05 14:47:00,
2013-03-05 08:52:00,25.3,20.1,22.01,SE,135,8.0,13.0,80,0.00,,,0.00,meteohub,2013-03-05 14:52:00,
2013-03-05 08:56:00,25.3,20.1,22.01,SE,135,11.0,12.0,80,0.00,,,0.00,meteohub,2013-03-05 14:56:00,
2013-03-05 09:01:00,25.5,20.5,22.01,East,90,7.0,12.0,81,0.00,,,0.00,meteohub,2013-03-05 15:01:00,
2013-03-05 09:06:00,25.5,20.5,22.01,SE,135,4.0,11.0,81,0.00,,,0.00,meteohub,2013-03-05 15:06:00,
2013-03-05 09:11:00,25.5,20.5,22.01,SE,135,7.0,11.0,81,0.00,,,0.00,meteohub,2013-03-05 15:11:00,
2013-03-05 09:16:00,25.3,20.3,22.01,East,90,8.0,8.0,81,0.00,,,0.00,meteohub,2013-03-05 15:16:00,
2013-03-05 09:21:00,25.3,20.3,22.01,SE,135,8.0,10.0,81,0.00,,,0.00,meteohub,2013-03-05 15:21:00,
2013-03-05 09:26:00,25.3,20.3,22.01,East,90,8.0,10.0,81,0.00,,,0.00,meteohub,2013-03-05 15:26:00,
2013-03-05 09:32:00,25.2,20.1,22.01,ESE,113,9.0,10.0,81,0.00,,,0.00,meteohub,2013-03-05 15:32:00,
2013-03-05 09:37:00,25.2,20.1,22.01,ESE,113,9.0,11.0,81,0.00,,,0.00,meteohub,2013-03-05 15:37:00,
2013-03-05 09:42:00,25.2,20.1,22.01,East,90,9.0,11.0,81,0.00,,,0.00,meteohub,2013-03-05 15:42:00,
2013-03-05 09:47:00,25.2,20.1,22.01,SE,135,12.0,12.0,81,0.00,,,0.00,meteohub,2013-03-05 15:47:00,
2013-03-05 09:52:00,25.2,20.1,22.01,East,90,8.0,12.0,81,0.00,,,0.00,meteohub,2013-03-05 15:52:00,
2013-03-05 09:57:00,25.2,20.1,22.02,SE,135,11.0,12.0,81,0.00,,,0.00,meteohub,2013-03-05 15:57:00,
2013-03-05 10:02:00,25.2,20.1,22.01,SE,135,9.0,12.0,81,0.00,,,0.00,meteohub,2013-03-05 16:02:00,
2013-03-05 10:06:00,25.2,20.1,22.01,SE,135,9.0,11.0,81,0.00,,,0.00,meteohub,2013-03-05 16:06:00,
2013-03-05 10:12:00,25.5,20.5,22.01,SE,135,9.0,11.0,81,0.00,,,0.00,meteohub,2013-03-05 16:12:00,
2013-03-05 10:16:00,25.5,20.8,22.02,SE,135,6.0,12.0,82,0.00,,,0.00,meteohub,2013-03-05 16:16:00,
2013-03-05 10:21:00,25.7,21.0,22.02,SE,135,15.0,15.0,82,0.00,,,0.00,meteohub,2013-03-05 16:21:00,
2013-03-05 10:27:00,25.7,21.0,22.02,SE,135,9.0,15.0,82,0.00,,,0.00,meteohub,2013-03-05 16:27:00,
2013-03-05 10:32:00,25.9,21.2,22.02,SE,135,16.0,16.0,82,0.00,,,0.00,meteohub,2013-03-05 16:32:00,
2013-03-05 10:37:00,25.9,21.2,22.02,South,180,8.0,16.0,82,0.00,,,0.00,meteohub,2013-03-05 16:37:00,
2013-03-05 10:42:00,26.1,21.4,22.03,SE,135,12.0,16.0,82,0.00,,,0.00,meteohub,2013-03-05 16:42:00,
2013-03-05 10:47:00,26.2,21.6,22.03,SE,135,9.0,16.0,82,0.00,,,0.00,meteohub,2013-03-05 16:47:00,
2013-03-05 10:52:00,26.2,21.6,22.03,South,180,5.0,15.0,82,0.00,,,0.00,meteohub,2013-03-05 16:52:00,
2013-03-05 10:57:00,26.4,21.7,22.03,SE,135,7.0,15.0,82,0.00,,,0.00,meteohub,2013-03-05 16:57:00,
2013-03-05 11:02:00,26.6,21.6,22.03,SE,135,6.0,11.0,81,0.00,,,0.00,meteohub,2013-03-05 17:02:00,
2013-03-05 11:07:00,27.1,22.1,22.03,ESE,113,13.0,13.0,81,0.00,,,0.00,meteohub,2013-03-05 17:07:00,
2013-03-05 11:12:00,27.3,22.3,22.03,South,180,8.0,13.0,81,0.00,,,0.00,meteohub,2013-03-05 17:12:00,
2013-03-05 11:17:00,27.5,22.5,22.03,SE,135,8.0,13.0,81,0.00,,,0.00,meteohub,2013-03-05 17:17:00,
2013-03-05 11:22:00,27.5,22.5,22.03,SE,135,11.0,13.0,81,0.00,,,0.00,meteohub,2013-03-05 17:22:00,
2013-03-05 11:27:00,27.1,22.1,22.04,SE,135,11.0,14.0,81,0.00,,,0.00,meteohub,2013-03-05 17:27:00,
2013-03-05 11:32:00,27.0,21.9,22.04,SE,135,8.0,15.0,81,0.00,,,0.00,meteohub,2013-03-05 17:32:00,
2013-03-05 11:37:00,27.1,22.1,22.04,SE,135,10.0,15.0,81,0.00,,,0.00,meteohub,2013-03-05 17:37:00,
2013-03-05 11:42:00,27.0,21.9,22.04,SE,135,9.0,15.0,81,0.00,,,0.00,meteohub,2013-03-05 17:42:00,
2013-03-05 11:47:00,27.1,22.1,22.04,SE,135,10.0,15.0,81,0.00,,,0.00,meteohub,2013-03-05 17:47:00,
2013-03-05 11:52:00,27.0,21.6,22.05,SE,135,9.0,15.0,80,0.00,,,0.00,meteohub,2013-03-05 17:52:00,
2013-03-05 11:57:00,27.0,21.6,22.05,SE,135,9.0,14.0,80,0.00,,,0.00,meteohub,2013-03-05 17:57:00,
2013-03-05 12:02:00,27.0,21.6,22.06,SE,135,11.0,18.0,80,0.00,,,0.00,meteohub,2013-03-05 18:02:00,
2013-03-05 12:07:00,27.0,21.6,22.05,SE,135,11.0,18.0,80,0.00,,,0.00,meteohub,2013-03-05 18:07:00,
2013-03-05 12:12:00,27.3,21.9,22.06,East,90,6.0,18.0,80,0.00,,,0.00,meteohub,2013-03-05 18:12:00,
2013-03-05 12:17:00,27.1,21.7,22.06,SE,135,8.0,11.0,80,0.00,,,0.00,meteohub,2013-03-05 18:17:00,
2013-03-05 12:22:00,27.0,21.6,22.06,SE,135,9.0,15.0,80,0.00,,,0.00,meteohub,2013-03-05 18:22:00,
2013-03-05 12:27:00,27.0,21.6,22.06,SE,135,10.0,15.0,80,0.00,,,0.00,meteohub,2013-03-05 18:27:00,
2013-03-05 12:32:00,27.3,21.9,22.06,SE,135,9.0,15.0,80,0.00,,,0.00,meteohub,2013-03-05 18:32:00,
2013-03-05 12:37:00,27.0,21.6,22.06,SE,135,15.0,15.0,80,0.00,,,0.00,meteohub,2013-03-05 18:37:00,
2013-03-05 12:42:00,26.8,21.4,22.06,SE,135,11.0,20.0,80,0.00,,,0.00,meteohub,2013-03-05 18:42:00,
2013-03-05 12:47:00,27.0,21.6,22.06,East,90,14.0,20.0,80,0.00,,,0.00,meteohub,2013-03-05 18:47:00,
2013-03-05 12:52:00,27.3,21.9,22.07,SE,135,11.0,20.0,80,0.00,,,0.00,meteohub,2013-03-05 18:52:00,
2013-03-05 12:57:00,27.7,22.3,22.07,SE,135,11.0,16.0,80,0.00,,,0.00,meteohub,2013-03-05 18:57:00,
2013-03-05 13:02:00,27.7,22.1,22.06,SE,135,17.0,17.0,79,0.00,,,0.00,meteohub,2013-03-05 19:02:00,
2013-03-05 13:07:00,27.3,21.7,22.07,SE,135,12.0,17.0,79,0.00,,,0.00,meteohub,2013-03-05 19:07:00,
2013-03-05 13:11:00,27.5,21.9,22.06,SE,135,11.0,17.0,79,0.00,,,0.00,meteohub,2013-03-05 19:11:00,
2013-03-05 13:16:00,27.7,22.1,22.06,SE,135,17.0,17.0,79,0.00,,,0.00,meteohub,2013-03-05 19:16:00,
2013-03-05 13:21:00,28.0,22.5,22.07,SE,135,9.0,17.0,79,0.00,,,0.00,meteohub,2013-03-05 19:21:00,
2013-03-05 13:26:00,28.2,22.6,22.07,SE,135,13.0,17.0,79,0.00,,,0.00,meteohub,2013-03-05 19:26:00,
2013-03-05 13:31:00,28.2,22.6,22.06,SE,135,11.0,17.0,79,0.00,,,0.00,meteohub,2013-03-05 19:31:00,
2013-03-05 13:36:00,28.0,22.5,22.06,SE,135,10.0,15.0,79,0.00,,,0.00,meteohub,2013-03-05 19:36:00,
2013-03-05 13:41:00,28.2,22.6,22.06,SE,135,10.0,15.0,79,0.00,,,0.00,meteohub,2013-03-05 19:41:00,
2013-03-05 13:46:00,28.0,22.5,22.06,East,90,12.0,15.0,79,0.00,,,0.00,meteohub,2013-03-05 19:46:00,
2013-03-05 13:51:00,27.7,22.1,22.06,SE,135,17.0,17.0,79,0.00,,,0.00,meteohub,2013-03-05 19:51:00,
2013-03-05 13:56:00,27.5,21.9,22.06,SE,135,11.0,17.0,79,0.00,,,0.00,meteohub,2013-03-05 19:56:00,
2013-03-05 14:01:00,27.9,22.5,22.06,SE,135,14.0,17.0,80,0.00,,,0.00,meteohub,2013-03-05 20:01:00,
2013-03-05 14:06:00,27.9,22.5,22.06,SE,135,14.0,17.0,80,0.00,,,0.00,meteohub,2013-03-05 20:06:00,
2013-03-05 14:11:00,27.9,22.5,22.06,East,90,10.0,14.0,80,0.00,,,0.00,meteohub,2013-03-05 20:11:00,
2013-03-05 14:16:00,28.0,22.6,22.06,East,90,14.0,15.0,80,0.00,,,0.00,meteohub,2013-03-05 20:16:00,
2013-03-05 14:21:00,28.2,22.8,22.05,ESE,113,10.0,16.0,80,0.00,,,0.00,meteohub,2013-03-05 20:21:00,
2013-03-05 14:26:00,28.2,22.8,22.06,SE,135,10.0,16.0,80,0.00,,,0.00,meteohub,2013-03-05 20:26:00,
2013-03-05 14:31:00,28.4,24.3,22.05,ESE,113,8.0,16.0,84,0.00,,,0.00,meteohub,2013-03-05 20:31:00,
2013-03-05 14:36:00,28.6,24.4,22.05,SE,135,9.0,14.0,84,0.00,,,0.00,meteohub,2013-03-05 20:36:00,
2013-03-05 14:41:00,28.6,24.4,22.05,SE,135,13.0,14.0,84,0.00,,,0.00,meteohub,2013-03-05 20:41:00,
2013-03-05 14:46:00,28.2,22.8,22.05,SE,135,11.0,16.0,80,0.00,,,0.00,meteohub,2013-03-05 20:46:00,
2013-03-05 14:51:00,28.2,22.8,22.05,ESE,113,6.0,16.0,80,0.00,,,0.00,meteohub,2013-03-05 20:51:00,
2013-03-05 14:56:00,28.4,24.3,22.04,SE,135,13.0,16.0,84,0.00,,,0.00,meteohub,2013-03-05 20:56:00,
2013-03-05 15:01:00,28.0,22.6,22.04,East,90,11.0,14.0,80,0.00,,,0.00,meteohub,2013-03-05 21:01:00,
2013-03-05 15:06:00,28.0,22.6,22.04,SE,135,11.0,15.0,80,0.00,,,0.00,meteohub,2013-03-05 21:06:00,
2013-03-05 15:11:00,28.0,23.0,22.04,East,90,13.0,15.0,81,0.00,,,0.00,meteohub,2013-03-05 21:11:00,
2013-03-05 15:16:00,27.7,22.6,22.04,SE,135,19.0,19.0,81,0.00,,,0.00,meteohub,2013-03-05 21:16:00,
2013-03-05 15:21:00,27.5,22.5,22.04,East,90,13.0,19.0,81,0.00,,,0.00,meteohub,2013-03-05 21:21:00,
2013-03-05 15:26:00,27.1,22.1,22.03,East,90,16.0,19.0,81,0.00,,,0.00,meteohub,2013-03-05 21:26:00,
2013-03-05 15:31:00,27.1,21.7,22.03,SE,135,15.0,25.0,80,0.00,,,0.00,meteohub,2013-03-05 21:31:00,
2013-03-05 15:36:00,27.3,21.9,22.03,East,90,13.0,25.0,80,0.00,,,0.00,meteohub,2013-03-05 21:36:00,
2013-03-05 15:41:00,27.0,21.6,22.02,SE,135,15.0,25.0,80,0.00,,,0.00,meteohub,2013-03-05 21:41:00,
2013-03-05 15:46:00,26.8,21.4,22.02,SE,135,16.0,17.0,80,0.00,,,0.00,meteohub,2013-03-05 21:46:00,
2013-03-05 15:51:00,26.8,21.4,22.02,East,90,15.0,17.0,80,0.00,,,0.00,meteohub,2013-03-05 21:51:00,
2013-03-05 15:56:00,26.8,21.7,22.01,SE,135,12.0,17.0,81,0.00,,,0.00,meteohub,2013-03-05 21:56:00,
2013-03-05 16:01:00,26.8,21.7,22.01,SE,135,10.0,16.0,81,0.00,,,0.00,meteohub,2013-03-05 22:01:00,
2013-03-05 16:06:00,26.8,21.7,22.01,SE,135,10.0,16.0,81,0.00,,,0.00,meteohub,2013-03-05 22:06:00,
2013-03-05 16:11:00,26.8,21.7,22.01,South,180,8.0,14.0,81,0.00,,,0.00,meteohub,2013-03-05 22:11:00,
2013-03-05 16:16:00,26.6,21.6,22.01,SE,135,10.0,11.0,81,0.00,,,0.00,meteohub,2013-03-05 22:16:00,
2013-03-05 16:21:00,26.6,21.6,22.00,ESE,113,14.0,14.0,81,0.00,,,0.00,meteohub,2013-03-05 22:21:00,
2013-03-05 16:26:00,26.6,21.6,22.00,East,90,9.0,14.0,81,0.00,,,0.00,meteohub,2013-03-05 22:26:00,
2013-03-05 16:31:00,26.8,21.7,22.00,SE,135,7.0,15.0,81,0.00,,,0.00,meteohub,2013-03-05 22:31:00,
2013-03-05 16:36:00,27.0,22.3,22.00,SE,135,7.0,15.0,82,0.00,,,0.00,meteohub,2013-03-05 22:36:00,
2013-03-05 16:41:00,27.0,22.3,22.00,East,90,6.0,12.0,82,0.00,,,0.00,meteohub,2013-03-05 22:41:00,
2013-03-05 16:46:00,27.0,22.3,22.00,East,90,8.0,11.0,82,0.00,,,0.00,meteohub,2013-03-05 22:46:00,
2013-03-05 16:51:00,27.0,22.3,21.99,East,90,10.0,11.0,82,0.00,,,0.00,meteohub,2013-03-05 22:51:00,
2013-03-05 16:56:00,26.8,22.1,21.99,East,90,9.0,11.0,82,0.00,,,0.00,meteohub,2013-03-05 22:56:00,
2013-03-05 17:01:00,26.8,22.1,21.99,East,90,9.0,12.0,82,0.00,,,0.00,meteohub,2013-03-05 23:01:00,
2013-03-05 17:07:00,26.8,22.1,21.99,SE,135,8.0,12.0,82,0.00,,,0.00,meteohub,2013-03-05 23:07:00,
2013-03-05 17:12:00,26.8,22.1,21.99,East,90,9.0,12.0,82,0.00,,,0.00,meteohub,2013-03-05 23:12:00,
2013-03-05 17:17:00,26.8,22.1,21.99,East,90,8.0,11.0,82,0.00,,,0.00,meteohub,2013-03-05 23:17:00,
2013-03-05 17:21:00,26.8,22.1,21.98,East,90,8.0,9.0,82,0.00,,,0.00,meteohub,2013-03-05 23:21:00,
2013-03-05 17:26:00,26.8,22.1,21.98,SE,135,11.0,11.0,82,0.00,,,0.00,meteohub,2013-03-05 23:26:00,
2013-03-05 17:31:00,26.6,21.9,21.98,East,90,5.0,11.0,82,0.00,,,0.00,meteohub,2013-03-05 23:31:00,
2013-03-05 17:36:00,26.6,21.9,21.97,East,90,4.0,11.0,82,0.00,,,0.00,meteohub,2013-03-05 23:36:00,
2013-03-05 17:41:00,26.6,21.9,21.97,East,90,7.0,11.0,82,0.00,,,0.00,meteohub,2013-03-05 23:41:00,
2013-03-05 17:47:00,26.6,22.1,21.97,SE,135,6.0,10.0,83,0.00,,,0.00,meteohub,2013-03-05 23:47:00,
2013-03-05 17:52:00,26.6,22.1,21.97,East,90,8.0,10.0,83,0.00,,,0.00,meteohub,2013-03-05 23:52:00,
2013-03-05 17:57:00,26.6,22.1,21.96,SE,135,7.0,10.0,83,0.00,,,0.00,meteohub,2013-03-05 23:57:00,
2013-03-05 18:02:00,26.6,22.1,21.96,NE,45,8.0,9.0,83,0.00,,,0.00,meteohub,2013-03-06 00:02:00,
2013-03-05 18:07:00,26.6,22.1,21.96,NE,45,8.0,8.0,83,0.00,,,0.00,meteohub,2013-03-06 00:07:00,
2013-03-05 18:12:00,26.6,22.1,21.95,SE,135,8.0,13.0,83,0.00,,,0.00,meteohub,2013-03-06 00:12:00,
2013-03-05 18:17:00,26.6,22.1,21.95,East,90,8.0,13.0,83,0.00,,,0.00,meteohub,2013-03-06 00:17:00,
2013-03-05 18:22:00,26.6,22.1,21.95,ESE,113,7.0,13.0,83,0.00,,,0.00,meteohub,2013-03-06 00:22:00,
2013-03-05 18:27:00,26.6,22.1,21.95,SE,135,8.0,13.0,83,0.00,,,0.00,meteohub,2013-03-06 00:27:00,
2013-03-05 18:32:00,26.6,22.1,21.95,East,90,5.0,13.0,83,0.00,,,0.00,meteohub,2013-03-06 00:32:00,
2013-03-05 18:36:00,26.6,22.1,21.95,East,90,7.0,13.0,83,0.00,,,0.00,meteohub,2013-03-06 00:36:00,
2013-03-05 18:41:00,26.6,22.1,21.95,ESE,113,8.0,10.0,83,0.00,,,0.00,meteohub,2013-03-06 00:41:00,
2013-03-05 18:47:00,26.6,22.1,21.95,SE,135,7.0,8.0,83,0.00,,,0.00,meteohub,2013-03-06 00:47:00,
2013-03-05 18:52:00,26.4,22.3,21.94,East,90,7.0,8.0,84,0.00,,,0.00,meteohub,2013-03-06 00:52:00,
2013-03-05 18:57:00,26.4,22.3,21.94,East,90,6.0,10.0,84,0.00,,,0.00,meteohub,2013-03-06 00:57:00,
2013-03-05 19:02:00,26.2,22.1,21.94,ENE,68,6.0,10.0,84,0.00,,,0.00,meteohub,2013-03-06 01:02:00,
2013-03-05 19:07:00,26.2,22.1,21.94,East,90,6.0,10.0,84,0.00,,,0.00,meteohub,2013-03-06 01:07:00,
2013-03-05 19:12:00,26.2,22.1,21.94,SE,135,7.0,13.0,84,0.00,,,0.00,meteohub,2013-03-06 01:12:00,
2013-03-05 19:17:00,26.2,22.1,21.94,East,90,7.0,13.0,84,0.00,,,0.00,meteohub,2013-03-06 01:17:00,
2013-03-05 19:22:00,26.1,21.9,21.94,East,90,10.0,13.0,84,0.00,,,0.00,meteohub,2013-03-06 01:22:00,
2013-03-05 19:27:00,26.1,21.9,21.94,East,90,9.0,10.0,84,0.00,,,0.00,meteohub,2013-03-06 01:27:00,
2013-03-05 19:31:00,26.1,21.9,21.94,East,90,6.0,13.0,84,0.00,,,0.00,meteohub,2013-03-06 01:31:00,
2013-03-05 19:36:00,26.1,21.9,21.94,East,90,5.0,13.0,84,0.00,,,0.00,meteohub,2013-03-06 01:36:00,
2013-03-05 19:41:00,26.1,21.9,21.94,East,90,7.0,13.0,84,0.00,,,0.00,meteohub,2013-03-06 01:41:00,
2013-03-05 19:46:00,25.9,21.4,21.94,East,90,6.0,11.0,83,0.00,,,0.00,meteohub,2013-03-06 01:46:00,
2013-03-05 19:51:00,25.9,21.4,21.94,East,90,5.0,11.0,83,0.00,,,0.00,meteohub,2013-03-06 01:51:00,
2013-03-05 19:56:00,25.7,21.2,21.94,NE,45,6.0,11.0,83,0.00,,,0.00,meteohub,2013-03-06 01:56:00,
2013-03-05 20:01:00,25.7,21.2,21.94,East,90,4.0,8.0,83,0.00,,,0.00,meteohub,2013-03-06 02:01:00,
2013-03-05 20:06:00,25.7,21.2,21.94,East,90,4.0,8.0,83,0.00,,,0.00,meteohub,2013-03-06 02:06:00,
2013-03-05 20:12:00,25.5,20.8,21.94,ENE,68,6.0,8.0,82,0.00,,,0.00,meteohub,2013-03-06 02:12:00,
2013-03-05 20:17:00,25.5,20.8,21.94,NE,45,4.0,7.0,82,0.00,,,0.00,meteohub,2013-03-06 02:17:00,
2013-03-05 20:22:00,25.3,20.3,21.94,NE,45,6.0,7.0,81,0.00,,,0.00,meteohub,2013-03-06 02:22:00,
2013-03-05 20:27:00,25.3,20.3,21.93,East,90,6.0,6.0,81,0.00,,,0.00,meteohub,2013-03-06 02:27:00,
2013-03-05 20:32:00,25.2,20.1,21.93,East,90,4.0,6.0,81,0.00,,,0.00,meteohub,2013-03-06 02:32:00,
2013-03-05 20:37:00,25.2,20.1,21.94,NE,45,4.0,6.0,81,0.00,,,0.00,meteohub,2013-03-06 02:37:00,
2013-03-05 20:42:00,25.0,19.8,21.93,North,0,4.0,7.0,80,0.00,,,0.00,meteohub,2013-03-06 02:42:00,
2013-03-05 20:46:00,25.0,19.8,21.93,East,90,4.0,8.0,80,0.00,,,0.00,meteohub,2013-03-06 02:46:00,
2013-03-05 20:51:00,25.0,19.8,21.93,NE,45,4.0,8.0,80,0.00,,,0.00,meteohub,2013-03-06 02:51:00,
2013-03-05 20:56:00,25.0,19.8,21.93,NE,45,4.0,8.0,80,0.00,,,0.00,meteohub,2013-03-06 02:56:00,
2013-03-05 21:01:00,25.0,19.4,21.93,East,90,3.0,8.0,79,0.00,,,0.00,meteohub,2013-03-06 03:01:00,
2013-03-05 21:06:00,25.0,19.4,21.92,NE,45,6.0,8.0,79,0.00,,,0.00,meteohub,2013-03-06 03:06:00,
2013-03-05 21:11:00,25.0,19.4,21.92,East,90,6.0,8.0,79,0.00,,,0.00,meteohub,2013-03-06 03:11:00,
2013-03-05 21:16:00,25.0,19.4,21.92,NNE,23,8.0,8.0,79,0.00,,,0.00,meteohub,2013-03-06 03:16:00,
2013-03-05 21:21:00,25.2,19.6,21.92,East,90,5.0,8.0,79,0.00,,,0.00,meteohub,2013-03-06 03:21:00,
2013-03-05 21:26:00,25.2,19.6,21.92,NE,45,8.0,8.0,79,0.00,,,0.00,meteohub,2013-03-06 03:26:00,
2013-03-05 21:31:00,25.3,19.8,21.91,East,90,8.0,9.0,79,0.00,,,0.00,meteohub,2013-03-06 03:31:00,
2013-03-05 21:36:00,25.3,19.8,21.91,East,90,4.0,9.0,79,0.00,,,0.00,meteohub,2013-03-06 03:36:00,
2013-03-05 21:42:00,25.5,19.9,21.91,East,90,6.0,9.0,79,0.00,,,0.00,meteohub,2013-03-06 03:42:00,
2013-03-05 21:47:00,25.5,19.9,21.91,NE,45,8.0,9.0,79,0.00,,,0.00,meteohub,2013-03-06 03:47:00,
2013-03-05 21:52:00,25.7,20.1,21.91,NE,45,4.0,9.0,79,0.00,,,0.00,meteohub,2013-03-06 03:52:00,
2013-03-05 21:57:00,25.7,20.1,21.91,East,90,4.0,9.0,79,0.00,,,0.00,meteohub,2013-03-06 03:57:00,
2013-03-05 22:02:00,25.7,20.1,21.91,East,90,8.0,8.0,79,0.00,,,0.00,meteohub,2013-03-06 04:02:00,
2013-03-05 22:07:00,25.7,20.1,21.91,East,90,8.0,13.0,79,0.00,,,0.00,meteohub,2013-03-06 04:07:00,
2013-03-05 22:12:00,25.7,19.8,21.91,ENE,68,5.0,13.0,78,0.00,,,0.00,meteohub,2013-03-06 04:12:00,
2013-03-05 22:17:00,25.7,19.6,21.91,East,90,8.0,11.0,77,0.00,,,0.00,meteohub,2013-03-06 04:17:00,
2013-03-05 22:22:00,25.7,19.6,21.91,NE,45,8.0,11.0,77,0.00,,,0.00,meteohub,2013-03-06 04:22:00,
2013-03-05 22:27:00,25.7,19.6,21.90,NE,45,11.0,11.0,77,0.00,,,0.00,meteohub,2013-03-06 04:27:00,
2013-03-05 22:31:00,25.7,19.2,21.90,NE,45,4.0,11.0,76,0.00,,,0.00,meteohub,2013-03-06 04:31:00,
2013-03-05 22:36:00,25.7,19.2,21.90,North,0,3.0,11.0,76,0.00,,,0.00,meteohub,2013-03-06 04:36:00,
2013-03-05 22:41:00,25.7,19.2,21.90,NE,45,7.0,11.0,76,0.00,,,0.00,meteohub,2013-03-06 04:41:00,
2013-03-05 22:46:00,25.9,19.0,21.90,NE,45,6.0,8.0,75,0.00,,,0.00,meteohub,2013-03-06 04:46:00,
2013-03-05 22:51:00,25.9,19.0,21.90,NE,45,11.0,11.0,75,0.00,,,0.00,meteohub,2013-03-06 04:51:00,
2013-03-05 22:56:00,25.9,18.7,21.89,NE,45,10.0,11.0,74,0.00,,,0.00,meteohub,2013-03-06 04:56:00,
2013-03-05 23:00:00,25.9,18.7,21.89,NE,45,4.0,11.0,74,0.00,,,0.00,meteohub,2013-03-06 05:00:00,
2013-03-05 23:02:00,25.9,18.7,21.89,NE,45,8.0,11.0,74,0.00,,,0.00,meteohub,2013-03-06 05:02:00,
2013-03-05 23:07:00,25.9,18.7,21.89,NE,45,5.0,11.0,74,0.00,,,0.00,meteohub,2013-03-06 05:07:00,
2013-03-05 23:12:00,25.9,18.7,21.89,NE,45,8.0,10.0,74,0.00,,,0.00,meteohub,2013-03-06 05:12:00,
2013-03-05 23:17:00,25.9,18.7,21.88,East,90,4.0,9.0,74,0.00,,,0.00,meteohub,2013-03-06 05:17:00,
2013-03-05 23:22:00,25.9,18.7,21.88,ENE,68,9.0,9.0,74,0.00,,,0.00,meteohub,2013-03-06 05:22:00,
2013-03-05 23:27:00,25.9,18.7,21.88,NE,45,4.0,12.0,74,0.00,,,0.00,meteohub,2013-03-06 05:27:00,
2013-03-05 23:31:00,25.9,18.7,21.88,NE,45,8.0,12.0,74,0.00,,,0.00,meteohub,2013-03-06 05:31:00,
2013-03-05 23:36:00,25.9,18.5,21.88,NE,45,7.0,12.0,73,0.00,,,0.00,meteohub,2013-03-06 05:36:00,
2013-03-05 23:42:00,25.9,18.5,21.88,East,90,6.0,11.0,73,0.00,,,0.00,meteohub,2013-03-06 05:42:00,
2013-03-05 23:47:00,25.9,18.7,21.87,East,90,8.0,11.0,74,0.00,,,0.00,meteohub,2013-03-06 05:47:00,
2013-03-05 23:52:00,25.9,18.7,21.87,NE,45,9.0,11.0,74,0.00,,,0.00,meteohub,2013-03-06 05:52:00,
2013-03-05 23:57:00,25.9,18.7,21.87,North,0,7.0,11.0,74,0.00,,,0.00,meteohub,2013-03-06 05:57:00,